Location: Barcelona
(41.3830°N, 2.1830°E)
Time: 13:06:10
(UTC+01:00)

ISS - Pass Details

Date: 07 December 2019
Orbit: 411 x 421 km, 51.6° (Epoch: 11 December)

Event Time Altitude Azimuth Distance (km) Brightness Sun altitude
Rises 19:12:13 0° 307° (NW) 2,361 0.6 -20.1°
Reaches altitude 10° 19:14:19 10° 310° (NW) 1,497 -0.5 -20.5°
Enters shadow 19:16:54 47° 334° (NNW) 565 -3.1 -20.9°
